STARLINK-1258, 45381

Orbit data source: Space-Track

STARLINK-1258, 45381 is a payload satellite owned by SpaceX/Seattle (US) in LEO that was launched on Wed, 18 Mar 2020 UTC via an FALCON 9 launch vehicle from the Air Force Eastern Test Range (AFETR). Payload-class satellites include a variety of spacecraft equipped with specific instruments for various scientific and technological missions. These include communications satellites like Starlink; space stations such as the ISS; scientific satellites like the Hubble; Earth observation satellites from companies like Planet Labs, Umbra, and HawkEye 360; GPS; miniature CubeSats for education and research; and military/defense satellites.

Loading next visibility...
Identifier
45381, 2020-019X
Orbit
LEO
Last TLE update
14 hours ago
Origin
Manufacturer
SpaceX/Seattle
Mission
Operational Commercial Communications
Bus & Motor
STARLINK, Unknown motor
Mass
260 kg wet, ~248 kg dry
Launch date (UTC)
2020-03-18 (5 years ago)
Launch vehicle
FALCON 9
Launch site
Air Force Eastern Test Range (AFETR)
Object type
Payload
Rocket body
Debris
Shape & HBR
Box + 1 Pan, 8.86 m
Radar Cross Section
13.562 m², Large (>1 m²)

Expand to show TLE details & history

TLE from 14 hours ago
0 STARLINK-1258
1 45381U 20019X   25133.80219102  .00000075  00000-0  23919-4 0  9990
2 45381  53.0571  52.8686 0001566  70.6000 289.5158 15.06390582284809
Epoch: 2025-05-13T19:15Z
Definitive object data (Epoch: 2025-05-13T19:15:09.304Z)
Latitude
-0.00002°
Longitude
-107.71588°
Altitude
547.758 km
Speed
7.59 km/s
True Right ascension
03h 31m 28s
True Declination
0° 00' 00"
Sunlit
Object was in daylight at TLE epoch
Visualization TLE readout
Latitude
-20.16954°
Longitude
85.67602°
Altitude
553.575 km
Speed
7.585 km/s
Apparent Right ascension
14h 06m 10s
Apparent Declination
-71° 34' 28"
Sunlit
Object is in full shadow
Visualization observer readout
Local Sidereal Time
17:22:52
Azimuth
195.538° SSW
Elevation
-26.762°
Doppler factor
1
Orbital elements
Apogee altitude
548.595 km
Perigee altitude
546.426 km
Semi-major axis
6,925.648 km
Eccentricity
0.0001566
Inclination
53.0571°
RAAN
52.8686°
Arg. of periapsis
70.6°
True anomaly
289.49888°
Mean anomaly
289.5158°
Eccentric anomaly
289.50734°
Mean motion
3.76576 °/min
BSTAR
0.000023919
Orbital period
95.6 mins
Loading maneuver chart data...
Loading SW <> Apogee altitude chart data...
Loading historical data...
Loading historical data...
Loading historical data...
Loading historical data...
Loading historical data...
Loading historical data...
Loading historical data...

STARLINK-1258 Visibility forecast

Observer location: undefined°, undefined°

Span
Click to sort rows by Start time (UTC) header in descending order
Start Az.
Max El. time (UTC)
Max El. Az.
Max El.
End time (UTC)
End Az.
7 mins2025-05-14 20:53:55.772Z214.461° SW2025-05-14 20:56:55.772Z156.613° SSE40.867°2025-05-14 21:00:55.772Z56.936° ENE
5 mins2025-05-14 22:34:55.772Z292.13° WNW2025-05-14 22:36:55.772Z333.784° NNW23.463°2025-05-14 22:39:55.772Z27.93° NE
4 mins2025-05-15 01:56:55.772Z349.518° N2025-05-15 01:58:55.772Z25.374° NE16.726°2025-05-15 02:00:55.772Z56.675° ENE
6 mins2025-05-15 03:35:55.772Z319.761° NNW2025-05-15 03:38:55.772Z56.231° ENE40.94°2025-05-15 03:41:55.772Z115.83° SE
|